Tracking 20376 objects as of 20-Feb-2020
HD Live streaming from Space Station
objects crossing your sky now
Track the group of recently launched Starlink satellites

METEOR 3-2

Track METEOR 3-2 now!
10-day predictions
METEOR 3-2 is classified as:


NORAD ID: 19336
Int'l Code: 1988-064A
Perigee: 1,190.0 km
Apogee: 1,215.2 km
Inclination: 82.5 °
Period: 109.3 minutes
Semi major axis: 7573 km
RCS: 6.8041 m2 (large)
Launch date: July 26, 1988
Source: Commonwealth of Independent States (former USSR) (CIS)
Launch site: PLESETSK MISSILE AND SPACE COMPLEX (PKMTR)
aabbcc
Your satellite tracking list
Your tracking list is empty




NASA's NSSDC Master Catalog

Two Line Element Set (TLE):
1 19336U 88064A   20050.84564486 -.00000044 +00000-0 -14609-3 0  9993
2 19336 082.5462 165.7527 0016633 217.2269 259.6436 13.17189270517627
Source of the keplerian elements: AFSPC